TimeCDT,TemperatureF,Dew PointF,Humidity,Sea Level PressureIn,VisibilityMPH,Wind Direction,Wind SpeedMPH,Gust SpeedMPH,PrecipitationIn,Events,Conditions,WindDirDegrees,DateUTC
12:17 AM,73.4,66.2,78,29.97,10.0,South,10.4,17.3,N/A,Thunderstorm,Overcast,190,2012-10-15 05:17:00
12:53 AM,69.1,61.0,75,29.97,10.0,Variable,6.9,-,N/A,Thunderstorm,Thunderstorm,0,2012-10-15 05:53:00
1:03 AM,68.0,62.6,83,29.99,1.8,West,15.0,27.6,0.15,Rain-Thunderstorm,Heavy Thunderstorms and Rain,280,2012-10-15 06:03:00
1:19 AM,66.2,64.4,94,29.98,1.0,Variable,5.8,23.0,0.65,Rain-Thunderstorm,Heavy Thunderstorms and Rain,0,2012-10-15 06:19:00
1:28 AM,69.8,66.2,88,29.95,2.0,Variable,4.6,-,0.66,Rain-Thunderstorm,Light Thunderstorms and Rain,0,2012-10-15 06:28:00
1:35 AM,69.8,64.4,83,29.96,10.0,SW,3.5,-,0.66,Thunderstorm,Mostly Cloudy,220,2012-10-15 06:35:00
1:49 AM,69.8,66.2,88,29.96,10.0,Calm,Calm,-,0.66,,Mostly Cloudy,0,2012-10-15 06:49:00
1:53 AM,69.1,66.0,90,29.94,10.0,Calm,Calm,-,0.66,Thunderstorm,Scattered Clouds,0,2012-10-15 06:53:00
2:15 AM,69.8,66.2,88,29.97,10.0,NW,8.1,-,N/A,Thunderstorm,Mostly Cloudy,320,2012-10-15 07:15:00
2:20 AM,68.0,66.2,94,29.96,10.0,NNW,4.6,-,N/A,,Overcast,330,2012-10-15 07:20:00
2:32 AM,69.8,64.4,83,29.97,2.5,WNW,5.8,-,0.08,Rain-Thunderstorm,Heavy Rain,300,2012-10-15 07:32:00
2:40 AM,68.0,64.4,88,29.97,1.8,WNW,5.8,-,0.15,Rain-Thunderstorm,Heavy Rain,290,2012-10-15 07:40:00
2:48 AM,68.0,66.2,94,29.97,1.5,Variable,3.5,-,0.23,Rain-Thunderstorm,Heavy Thunderstorms and Rain,0,2012-10-15 07:48:00
2:53 AM,68.0,66.0,93,29.95,2.0,Calm,Calm,-,0.24,Rain-Thunderstorm,Thunderstorms and Rain,0,2012-10-15 07:53:00
3:03 AM,66.2,66.2,100,29.96,5.0,WNW,5.8,-,0.01,Rain-Thunderstorm,Light Rain,290,2012-10-15 08:03:00
3:19 AM,66.2,66.2,100,29.97,1.8,WSW,4.6,-,0.07,Rain-Thunderstorm,Heavy Rain,250,2012-10-15 08:19:00
3:28 AM,66.2,64.4,94,29.96,2.0,Calm,Calm,-,0.09,Rain-Thunderstorm,Light Rain,0,2012-10-15 08:28:00
3:50 AM,66.2,64.4,94,29.95,9.0,SW,3.5,-,0.09,,Mostly Cloudy,230,2012-10-15 08:50:00
3:53 AM,66.9,64.9,93,29.94,9.0,Calm,Calm,-,0.09,,Mostly Cloudy,0,2012-10-15 08:53:00
4:14 AM,66.2,64.4,94,29.95,9.0,Calm,Calm,-,N/A,,Mostly Cloudy,0,2012-10-15 09:14:00
4:27 AM,66.2,64.4,94,29.94,8.0,Calm,Calm,-,N/A,,Mostly Cloudy,0,2012-10-15 09:27:00
4:45 AM,66.2,64.4,94,29.95,8.0,Calm,Calm,-,N/A,,Scattered Clouds,0,2012-10-15 09:45:00
4:53 AM,66.9,64.9,93,29.93,7.0,WNW,4.6,-,N/A,,Scattered Clouds,300,2012-10-15 09:53:00
5:03 AM,66.2,64.4,94,29.95,7.0,WNW,4.6,-,N/A,,Mostly Cloudy,290,2012-10-15 10:03:00
5:29 AM,66.2,64.4,94,29.96,6.0,WNW,3.5,-,N/A,,Overcast,300,2012-10-15 10:29:00
5:53 AM,66.9,64.9,93,29.95,6.0,NW,4.6,-,N/A,,Overcast,310,2012-10-15 10:53:00
6:08 AM,66.2,64.4,94,29.97,6.0,Variable,3.5,-,N/A,,Overcast,0,2012-10-15 11:08:00
6:53 AM,66.0,64.9,96,29.96,5.0,NW,3.5,-,N/A,,Overcast,310,2012-10-15 11:53:00
7:13 AM,66.2,64.4,94,29.98,4.0,Calm,Calm,-,N/A,,Mostly Cloudy,0,2012-10-15 12:13:00
7:20 AM,66.2,64.4,94,29.98,4.0,Calm,Calm,-,N/A,,Partly Cloudy,0,2012-10-15 12:20:00
7:40 AM,66.2,64.4,94,29.99,4.0,Calm,Calm,-,N/A,,Mostly Cloudy,0,2012-10-15 12:40:00
7:53 AM,68.0,64.9,90,29.98,6.0,NNW,3.5,-,N/A,,Mostly Cloudy,330,2012-10-15 12:53:00
8:21 AM,69.8,64.4,83,30.00,8.0,NW,6.9,-,N/A,,Mostly Cloudy,320,2012-10-15 13:21:00
8:48 AM,68.0,64.4,88,30.01,8.0,NNW,4.6,-,N/A,,Scattered Clouds,330,2012-10-15 13:48:00
8:53 AM,68.0,64.0,87,30.00,8.0,NNW,5.8,-,N/A,,Scattered Clouds,330,2012-10-15 13:53:00
9:53 AM,71.1,62.1,73,30.00,10.0,Variable,3.5,-,N/A,,Partly Cloudy,0,2012-10-15 14:53:00
10:53 AM,73.0,60.1,64,29.99,10.0,Variable,4.6,-,N/A,,Clear,0,2012-10-15 15:53:00
11:53 AM,75.0,57.0,53,29.99,10.0,NNW,6.9,-,N/A,,Partly Cloudy,330,2012-10-15 16:53:00
12:53 PM,75.9,55.0,48,29.98,10.0,NNW,8.1,17.3,N/A,,Clear,330,2012-10-15 17:53:00
1:53 PM,77.0,51.1,40,29.95,10.0,NNW,10.4,18.4,N/A,,Clear,340,2012-10-15 18:53:00
2:53 PM,77.0,48.9,37,29.94,10.0,NNW,9.2,20.7,N/A,,Clear,340,2012-10-15 19:53:00
3:53 PM,77.0,46.9,34,29.94,10.0,North,9.2,17.3,N/A,,Clear,350,2012-10-15 20:53:00
4:53 PM,75.9,46.0,35,29.93,10.0,NNW,9.2,-,N/A,,Clear,340,2012-10-15 21:53:00
5:53 PM,72.0,46.0,40,29.94,10.0,North,5.8,-,N/A,,Clear,350,2012-10-15 22:53:00
6:53 PM,64.9,50.0,58,29.95,10.0,Calm,Calm,-,N/A,,Clear,0,2012-10-15 23:53:00
7:53 PM,62.1,51.1,67,29.96,10.0,Calm,Calm,-,N/A,,Clear,0,2012-10-16 00:53:00
8:53 PM,59.0,52.0,78,29.96,10.0,Calm,Calm,-,N/A,,Clear,0,2012-10-16 01:53:00
9:53 PM,57.9,53.1,84,29.98,10.0,Calm,Calm,-,N/A,,Clear,0,2012-10-16 02:53:00
10:53 PM,55.9,53.1,90,29.99,10.0,Calm,Calm,-,N/A,,Clear,0,2012-10-16 03:53:00
11:53 PM,55.0,52.0,89,30.00,10.0,Calm,Calm,-,N/A,,Clear,0,2012-10-16 04:53:00